Location: ???????
(38.3360°N, 23.6977°E)
Time: 21:27:33
(UTC+00:00)

SL-19 R/B - Pass Details

Date: 17 November 2025
Orbit: 795 x 1008 km, 99.6° (Epoch: 11 December)

Event Time Altitude Azimuth Distance (km) Brightness Sun altitude
Rises 16:22:46 0° 144° (SE) 3,321 7.1 -14.1°
Reaches altitude 10° 16:25:14 10° 137° (SE) 2,378 6.3 -14.6°
Maximum altitude 16:30:04 40° 69° (ENE) 1,158 4.4 -15.5°
Drops below altitude 10° 16:34:53 10° 1° (N) 2,376 6.4 -16.4°
Sets 16:37:20 0° 354° (N) 3,318 7.2 -16.9°
